Portada
METAR-TAF:

METAR-TAF

Aeroports :

Bradshaw Army Air Field

Bradshaw, Hawaii, Estats Units d'Amèrica

latitud: 19-47N, longitud: 155-33W, altitud: 1887 m

Observació

L'informe es va fer fa 49 minuts, a les 06:58 UTC
Vent 3 kt del Est/Nord-Est
Temperatura 11°C
Humitat 76%
Pressió 1028 hPa
Visibilitat: 16.1 km
Cel clar

METAR: PHSF 200658Z AUTO 07003KT 10SM CLR 11/07 A3036 RMK AO2 SLP168 T01080072 402180077 $

Hora: 21:47 (07:47 UTC)


TAF: manca

Observacions i pronòstics meteorològics de més de 4000 aeroports (METAR i TAF).

Les estacions disponibles són els punts grocs i vermells al mapa.

Posi el ratolí al punt desitjat per veure el nom de l'estació.

Feu clic per veure les observacions i els pronòstics meteorològics.

Per canviar el mapa: feu clic els botons verds amb una creu de color negre per apropar; al botó verd amb un guió per allunyar la imatge; o en les fletxes verdes per a mapes adjacents.


METAR-TAF: